This is the latest recevied weather packets stored in our database for station/object IZ8NVY-10. If no packets are shown the sender has not sent any weather packets the latest 10 day(s).
| Time | Temp. | Humidity | Pressure | Rain* | Wind** | Luminosity | Snow |
|---|---|---|---|---|---|---|---|
| 1778210038 | 17.22° C | 58% | 974.5 hPa | - | - | - | - |
| 1778206437 | 17.78° C | 55% | 974.6 hPa | - | - | - | - |
| 1778202836 | 18.89° C | 55% | 974.5 hPa | - | - | - | - |
| 1778199234 | 19.44° C | 58% | 974.4 hPa | - | - | - | - |
| 1778195633 | 20° C | 56% | 975 hPa | - | - | - | - |
| 1778192033 | 20.56° C | 57% | 975.1 hPa | - | - | - | - |
| 1778188436 | 22.22° C | 52% | 974.9 hPa | - | - | - | - |
| 1778184835 | 22.78° C | 44% | 974.7 hPa | - | - | - | - |
| 1778181234 | 23.33° C | 50% | 974.9 hPa | - | - | - | - |
| 1778177633 | 24.44° C | 51% | 974 hPa | - | - | - | - |
| 1778174033 | 26.67° C | 42% | 974 hPa | - | - | - | - |
| 1778170432 | 30.56° C | 34% | 974 hPa | - | - | - | - |
| 1778166835 | 35° C | 31% | 974.4 hPa | - | - | - | - |
| 1778163233 | 35.56° C | 30% | 974.8 hPa | - | - | - | - |
| 1778159632 | 32.78° C | 32% | 975.4 hPa | - | - | - | - |
| 1778156031 | 32.78° C | 35% | 976 hPa | - | - | - | - |
| 1778152430 | 30° C | 37% | 976.8 hPa | - | - | - | - |
| 1778148829 | 31.11° C | 44% | 977.1 hPa | - | - | - | - |
| 1778145232 | 28.89° C | 42% | 977.4 hPa | - | - | - | - |
| 1778141633 | 28.33° C | 45% | 977.7 hPa | - | - | - | - |
| 1778138033 | 28.89° C | 58% | 977.5 hPa | - | - | - | - |
| 1778134429 | 20.56° C | 68% | 977.5 hPa | - | - | - | - |
| 1778130828 | 16.67° C | 70% | 977.6 hPa | - | - | - | - |
| 1778127228 | 16.11° C | 68% | 977.2 hPa | - | - | - | - |
| 1778123637 | 17.22° C | 68% | 977.5 hPa | - | - | - | - |
* Rain since midnight (hover to see other rain measurements)
** Current wind speed in m/s (hover to see current wind gust speed)